(432) Pythia
ephemeris date magn radius delta ra dec elong phase
Today10 Jun 202614.42.490 AU3.049 AU08h44m+26°33'48.2°17.7°
Opposition7 Jun 202710.92.029 AU1.017 AU17h06m-17°45'174.8°2.6°
(432) Pythia - 2026-06-10
astro.vanbuitenen.nl


 
-1 year
-1 month
-1 day
Now
+1 day
+1 month
+1 year

The interactive orbit chart above shows the body's path through the solar system and its position at the given date. Green and blue lines are shown perpendicular to the ecliptic plane: Green if the path is above the ecliptic plane, blue if it is below. (Left-click and drag to rotate the view; Right-click and drag to move the view; Use scroll wheel to zoom in our out.)

The orbital elements of Pythia are:

            e (Eccentricity)                : 0.1445566
            a (Semimajor axis)              : 2.3702996
            i (Inclination)                 : 12.11123
            Ω (Longitude of ascending node) : 88.71062
            ω (Argument of perihelion)      : 174.29738
            M (Mean anomaly)                : 256.98791
            Epoch                           : 2026 Jun 09

            L (Longitude of perihelion)     : 83.13412
            B (Latitude of perihelion)      : 1.19458
            P (Orbital period in years)     : 3.65            
        

The light curve chart below shows the estimated development of the minor planet's magnitude.


The all-sky chart below shows the path of the minor planet over the same period as the light curve. The current position is marked yellow.





The following chart shows the path of the minor planet in the next few days. The field of view is optimized for (~10x50) binoculars and finderscopes.




Ephemerides:
Date       Time       RA (2000)    DEC (2000)    delta   radius  elong  phase   PA    magn
2026-06-10 00:00 UT   08 44 35.1   +26 33 54     3.049    2.490   48.2   17.7    98   14.4 
2026-06-10 03:01 UT   08 44 47.7   +26 33 06     3.050    2.490   48.2   17.7    98   14.4 
2026-06-11 00:00 UT   08 46 16.0   +26 27 30     3.057    2.489   47.7   17.6    98   14.4 
2026-06-12 00:00 UT   08 47 57.2   +26 21 03     3.064    2.487   47.1   17.4    98   14.4 
2026-06-13 00:00 UT   08 49 38.6   +26 14 30     3.072    2.486   46.6   17.3    98   14.4 
2026-06-14 00:00 UT   08 51 20.4   +26 07 54     3.080    2.485   46.0   17.1    98   14.4 
2026-06-15 00:00 UT   08 53 02.4   +26 01 13     3.087    2.483   45.5   17.0    98   14.4 
2026-06-16 00:00 UT   08 54 44.7   +25 54 28     3.095    2.482   44.9   16.8    98   14.4 
2026-06-17 00:00 UT   08 56 27.2   +25 47 38     3.102    2.480   44.4   16.7    98   14.4 
2026-06-18 00:00 UT   08 58 09.9   +25 40 45     3.109    2.479   43.9   16.5    98   14.4 
2026-06-19 00:00 UT   08 59 52.9   +25 33 47     3.116    2.477   43.3   16.3    98   14.4 
2026-06-20 00:00 UT   09 01 36.1   +25 26 45     3.123    2.476   42.8   16.2    98   14.4 
2026-06-21 00:00 UT   09 03 19.5   +25 19 38     3.130    2.474   42.3   16.0    98   14.4 
2026-06-22 00:00 UT   09 05 03.1   +25 12 28     3.137    2.473   41.7   15.9    98   14.4 
2026-06-23 00:00 UT   09 06 46.9   +25 05 13     3.143    2.471   41.2   15.7    98   14.4 
2026-06-24 00:00 UT   09 08 30.9   +24 57 54     3.150    2.470   40.7   15.6    98   14.4 
2026-06-25 00:00 UT   09 10 15.1   +24 50 31     3.156    2.468   40.2   15.4    97   14.4 
2026-06-26 00:00 UT   09 11 59.5   +24 43 04     3.163    2.467   39.6   15.2    97   14.4 
2026-06-27 00:00 UT   09 13 44.0   +24 35 32     3.169    2.465   39.1   15.1    97   14.4 
2026-06-28 00:00 UT   09 15 28.7   +24 27 57     3.175    2.464   38.6   14.9    97   14.4 
2026-06-29 00:00 UT   09 17 13.6   +24 20 17     3.181    2.462   38.1   14.8    97   14.4 
2026-06-30 00:00 UT   09 18 58.6   +24 12 34     3.187    2.461   37.6   14.6    97   14.4 


    Terminology:
            
    delta:  distance between minor planet and earth in AU
    radius: distance between minor planet and sun in AU
    magn:   magnitude (brightness) estimate    
    ra:     right ascension in hours (24h = 360deg)
    dec:    declination in degrees
    elong:  elongation in degrees (angle sun-earth-minor planet)    
    phase:  phase angle in degrees (angle sun-minor planet-earth)        
    AU:     Astronomical Unit (mean distance between earth and sun: 149597870.7 km
    

Orbital elements provided by the MPC (Minor Planet Center).
Calculations by a modified version of AAPlus, a C# implementation of the AA+ project by PJ Naughter from the algorithms presented in the book "Astronomical Algorithms" by Jean Meeus.
NGC2000 dso catalog and star labels from VizieR as provided by the Strasbourg astronomical Data Center.
Tycho2 catalog from the ESO archive.